Regional Weather Roundup
Issued by NWS

Home | Current Version | Previous Version | Graphics & Text | Print | Product List | Glossary Off
Versions: 1 2 3 4 5 6 7 8 9 10 11 12 13 14 15 16 17 18 19 20 21 22 23 24 25 26 27 28 29 30 31 32 33 34 35 36 37 38 39 40 41 42 43 44 45 46 47 48 49 50

542
ASUS43 KBIS 202002
RWRND

NORTH DAKOTA REGIONAL WEATHER ROUNDUP
NATIONAL WEATHER SERVICE BISMARCK ND
200 PM CST TUE FEB 20 2018

NOTE: "FAIR" INDICATES FEW OR NO CLOUDS BELOW 12,000 FEET WITH NO
SIGNIFICANT WEATHER AND/OR OBSTRUCTIONS TO VISIBILITY.


NDZ001>003-009>011-017-202100-
NORTHWEST NORTH DAKOTA

CITY           SKY/WX    TMP DP  RH WIND       PRES   REMARKS
WILLISTON      FAIR       4  -3  73 W13       30.10F WCI -13
MINOT          PTSUNNY    9  -1  64 W15       30.06F WCI  -8
MINOT AFB      FAIR       8  -1  66 W15       30.05F WCI  -9
$$

NDZ018>021-031>035-040>046-202100-
SOUTHWEST NORTH DAKOTA

CITY           SKY/WX    TMP DP  RH WIND       PRES   REMARKS
BISMARCK       FAIR      12  -1  56 W18       30.15S WCI  -6
DICKINSON      FAIR       5  -3  69 W18       30.05  WCI -15
GARRISON         N/A      8  -1  66 W18       30.08F WCI -11
HETTINGER ARPT FAIR       2  -5  72 W14       30.10S WCI -16
$$

NDZ004>008-012>016-024-026-027-054-202100-
NORTHEAST NORTH DAKOTA

CITY           SKY/WX    TMP DP  RH WIND       PRES   REMARKS
GRAND FORKS    PTSUNNY   12   4  70 W12       30.10S WCI  -2
GRND FRKS AFB  MOSUNNY   12   0  59 NW14      30.09F WCI  -4
DEVILS LAKE    FAIR       6   0  76 W16       30.07F WCI -12
$$

NDZ022-023-025-028>030-036>039-047>053-202100-
SOUTHEAST NORTH DAKOTA

CITY           SKY/WX    TMP DP  RH WIND       PRES   REMARKS
FARGO          PTSUNNY   11   4  73 NW14      30.11S WCI  -5
JAMESTOWN      FAIR      10   0  63 NW16      30.09  WCI  -7
$$





USA.gov is the U.S. government's official web portal to all federal, state and local government web resources and services.